FENGYUN 3E

Last updated on Sat Aug 15 2026 00:02:40 GMT+0000 (Coordinated Universal Time)

1 49008U 21062A 26226.61868650 .00000101 00000+0 68398-4 0 9999 2 49008 98.7518 229.3823 0000646 316.7528 43.3597 14.19909149264873
UTC large
Height (km)
Speed (km/s)
/
Latitude / Longitude
Inclination (degrees)
Orbital Period (minutes)
Azimuth
Elevation
Range (km)
Doppler Factor

Next 0 passes for location: London (51.5072 / 0.1276)

No passes found over London.
FENGYUN 3E